Regional Weather Roundup
Issued by NWS Midland/Odessa, TX

Skip options and go directly to product.
Home | Oldest Version | Next Version | Current Version | All | Text Only | Save Text | Print | Product List | Glossary On

Skip product version selection by date and time.   
670
ASUS44 KMAF 180001
RWRMAF
MIDLAND AREA WEATHER ROUNDUP
NATIONAL WEATHER SERVICE MIDLAND TX
600 PM CST TUE JAN 17 2017

...IN SOUTHWEST TEXAS AND SOUTHEAST NEW MEXICO...

CITY           SKY/WX    TMP DP  RH WIND       PRES   REMARKS
ALPINE         CLOUDY    37  36  98 NE6       30.16R WCI  32
ANDREWS        CLOUDY    44  40  87 SE5       30.13R
ARTESIA        RAIN      45  45 100 SW8       30.11R
BIG SPRING     CLOUDY    41  40  96 N5        30.16R WCI  38
CARLSBAD       LGT RAIN  46  40  79 W5        30.11R
DRYDEN           N/A     46  41  82 N12       30.09S
FORT STOCKTON  CLOUDY    41  40  96 CALM      30.13S FOG
GUAD PASS      NOT AVBL
HOBBS          CLOUDY    48  39  71 E8        30.11R
MARFA          CLOUDY    38  36  92 NE8       30.09R WCI  32
MIDLAND AIRPK  DRIZZLE   44  42  95 CALM      30.15R
MIDLAND INTL   LGT RAIN  43  40  89 NE3       30.13R FOG
ODESSA         LGT RAIN  43  40  89 E5        30.13R FOG
PECOS          CLOUDY    42  39  89 SW9       30.14R WCI  37
PRESIDIO       MOCLDY    64  43  46 NE13      29.98R
SEMINOLE       CLOUDY    46  39  75 SE3       30.12R
SNYDER         LGT RAIN  40  40  97 SE5       30.15R WCI  37
WINK           CLOUDY    47  39  74 SE6       30.10S
$$
...OTHER STATIONS IN TEXAS...

CITY           SKY/WX    TMP DP  RH WIND       PRES   REMARKS
ABILENE        LGT RAIN  42  42 100 N8        30.13F FOG     WCI  37
AMARILLO       CLOUDY    48  35  60 E8        30.10R
AUSTIN         RAIN      50  48  93 N13       30.07R FOG
BROWNSVILLE    CLOUDY    76  72  87 SE14      29.93R
CORPUS CHRISTI CLOUDY    74  71  91 SE18      29.94S
DALLAS FTW     LGT RAIN  51  40  65 N3        30.13S
DEL RIO        CLOUDY    51  49  92 NW12      30.06R
EL PASO        MOCLDY    48  38  68 N13       30.08R
HOUSTON INT    FOG       59  58  96 NE9       30.06R VSB 1
LUBBOCK        CLOUDY    48  38  68 SE8       30.09R
SAN ANGELO     LGT RAIN  43  42  97 NE6       30.11R WCI  39
SAN ANTONIO    LGT RAIN  53  49  86 NE8       30.03S
WACO           CLOUDY    48  45  89 N7        30.13R
WICHITA FALLS  NOT AVBL
$$
...OTHER LOCATIONS IN NEW MEXICO...

CITY           SKY/WX    TMP DP  RH WIND       PRES   REMARKS
ALAMAGORDO     LGT RAIN  43  43 100 SE8       30.12R WCI  38
ALBUQUERQUE    CLOUDY    47  34  60 W8        30.09S
CANNON AFB     CLOUDY    49  40  73 W7        30.08R
CLOVIS         CLOUDY    48  37  66 S6        30.08R
HOLLOMAN AFB   LGT RAIN  44  43  97 S15       30.13R WCI  37
ROSWELL        LGT RAIN  46  40  79 SE7       30.10R
RUIDOSO        CLOUDY    36  32  87 W8        30.10R WCI  29
SANTA FE       CLEAR     43  29  57 N10       30.08S WCI  37
TRUTH OR CONSE PTCLDY    50  36  58 E3        30.06F
TUCUMCARI      CLEAR     48  36  63 W3        30.04R
$$

  • National Weather Service
  • Southern Region Headquarters
  • 819 Taylor Street, Room 10A06
  • Fort Worth, TX 76102
  • Page Author: NWS Fort Worth
  • Web Master: SR-SRH.Webmaster@noaa.gov
  •  
  • Page last modified: 30-Sep-2016 6:36 PM UTC
USA.gov is the U.S. government's official web portal to all federal, state and local government web resources and services.